Powrót do katalogu

CZ-6A DEB

AktywnyPO
NORAD 54489·DEBRIS·🇨🇳 China

Wystrzelony Nov 11, 2022 z Taiyuan Satellite Launch Center

Loading…

Następne Przeloty (najbliższe 24 godziny)

TLE

ŚwieżeSource: Space-Track

Epoka: Sep 13, 2026, 03:35 UTC

1 54489U 22151HR  26256.14973138  .00005284  00000-0  91043-3 0  9997
2 54489  98.6232 319.9277 0070036  33.3990 327.1602 14.67381787202370

Śledź CZ-6A DEB w czasie rzeczywistym z AllMySat

Download on the App Store